This is the latest recevied weather packets stored in our database for station/object KA8OAD-10. If no packets are shown the sender has not sent any weather packets the latest 10 day(s).
| Time | Temp. | Humidity | Pressure | Rain* | Wind** | Luminosity | Snow |
|---|---|---|---|---|---|---|---|
| 1777731751 | 3.33° C | 92% | 1015.2 hPa | 0 mm | - | 28 W/m² | - |
| 1777730850 | 3.33° C | 92% | 1015.1 hPa | 0 mm | - | 39 W/m² | - |
| 1777730553 | 3.33° C | 92% | 1015 hPa | 0 mm | - | 42 W/m² | - |
| 1777729952 | 3.33° C | 92% | 1015 hPa | 0 mm | - | 47 W/m² | - |
| 1777729050 | 3.33° C | 92% | 1014.9 hPa | 0 mm | - | 46 W/m² | - |
| 1777728750 | 3.33° C | 92% | 1014.8 hPa | 0 mm | - | 42 W/m² | - |
| 1777728153 | 3.33° C | 92% | 1014.7 hPa | 0 mm | - | 30 W/m² | - |
| 1777727551 | 3.33° C | 92% | 1014.6 hPa | 0 mm | - | 35 W/m² | - |
| 1777726650 | 3.33° C | 92% | 1014.5 hPa | 0 mm | - | 30 W/m² | - |
| 1777726350 | 3.33° C | 92% | 1014.5 hPa | 0 mm | - | 54 W/m² | - |
| 1777726053 | 3.33° C | 92% | 1014.5 hPa | 0 mm | - | 42 W/m² | - |
| 1777725753 | 3.33° C | 92% | 1014.6 hPa | 0 mm | - | 33 W/m² | - |
| 1777725151 | 3.33° C | 92% | 1014.6 hPa | 0 mm | - | 67 W/m² | - |
| 1777724851 | 3.33° C | 92% | 1014.6 hPa | 0 mm | - | 58 W/m² | - |
| 1777723952 | 3.33° C | 92% | 1014.5 hPa | 0 mm | - | 58 W/m² | - |
| 1777723351 | 3.33° C | 92% | 1014.4 hPa | 0 mm | - | 58 W/m² | - |
| 1777722750 | 3.33° C | 92% | 1014.3 hPa | 0 mm | - | 46 W/m² | - |
| 1777720651 | 3.89° C | 92% | 1014.3 hPa | 0 mm | - | 0 W/m² | - |
| 1777720350 | 3.89° C | 92% | 1014.3 hPa | 0 mm | - | 0 W/m² | - |
| 1777719749 | 3.89° C | 92% | 1014.3 hPa | 0 mm | - | 0 W/m² | - |
| 1777716452 | 3.89° C | 92% | 1013.8 hPa | 0 mm | - | 0 W/m² | - |
| 1777713450 | 3.89° C | 92% | 1013.6 hPa | 0.76 mm | - | 0 W/m² | - |
| 1777711350 | 3.89° C | 92% | 1013.6 hPa | 0.25 mm | - | 0 W/m² | - |
| 1777709851 | 3.33° C | 91% | 1013.4 hPa | 0 mm | - | 0 W/m² | - |
| 1777708352 | 3.33° C | 91% | 1013.4 hPa | 0 mm | - | 0 W/m² | - |
* Rain latest hour (hover to see other rain measurements)
** Current wind speed in m/s (hover to see current wind gust speed)